[[{"header":{"parameterUnit":"m.s-1","parameterCategory":2,"la1":30.2991,"la2":30.254,"lo1":-89.0895,"lo2":-89.0444,"dx":0.0017,"dy":0.0017,"nx":28,"ny":28,"refTime":"2022-11-16T03:00:00:Z","depth":"0","parameterNumber":2,"parameterNumberName":"U-component_of_CURRENTS"},"data":[0,0,0,0,0,0,0,0,0,0,0,0,0,0,0,0,0,0,0,0,0,0,0,0,0,0,0,0,0,0,0,0,0,0,0,0,0,0,0,0,0,0,0,0,0,0,0,0,0,0,0,0,0,0,0,0,0,0,0.1801,0.1802,0,0.1821,0.1821,0.1821,0.1826,0.1826,0.1826,0.1827,0.1814,0.1814,0.1813,0,0,0,0,0,0,0,0,0,0,0,0,0,0.1772,0.1773,0.1801,0.1802,0.1802,0.1821,0.1821,0.1821,0.1826,0.1826,0.1826,0.1827,0.1814,0.1814,0.1813,0,0,0,0,0,0,0,0,0,0,0,0,0,0.1786,0.1773,0.1801,0.1808,0.1809,0.1821,0.1821,0.1821,0.1826,0.1826,0.1827,0.1827,0.1814,0.1814,0.1813,0.1808,0,0,0.1812,0.1811,0,0,0,0,0,0,0,0,0.1785,0.1787,0.1807,0.1808,0.1809,0.1823,0.1806,0.1815,0.1826,0.1818,0.1827,0.1827,0.1815,0.1815,0.1816,0.1807,0.1807,0.1811,0.1811,0.1811,0.1811,0,0,0,0,0,0,0,0.1784,0.1786,0.1807,0.1807,0.1809,0.1812,0.1814,0.1808,0.1814,0.1819,0.182,0.1825,0.1815,0.1816,0.1816,0.1806,0.1812,0.1811,0.1811,0.181,0.1818,0.1819,0,0,0,0,0,0,0.1785,0.1785,0.1806,0.1808,0.1799,0.1813,0.1815,0.1817,0.1815,0.1815,0.1825,0.1825,0.1817,0.1816,0.1815,0.1835,0.1811,0.181,0.181,0.1818,0.1819,0.1819,0,0,0,0,0,0,0.1785,0.1787,0.1806,0.1799,0.1801,0.1813,0.1816,0.1817,0.182,0.182,0.1819,0.1827,0.1817,0.1816,0.1818,0.1834,0.181,0.181,0.1817,0.1818,0.1819,0.1858,0,0,0,0,0,0,0.1784,0.1786,0.1786,0.1799,0.1802,0.1818,0.1816,0.1818,0.1824,0.1825,0.1821,0.182,0.1817,0.1819,0.1818,0.1832,0.1809,0.1817,0.1818,0.1819,0.1856,0.186,0.1863,0,0,0,0,0,0.1782,0.1783,0.1786,0.1789,0.1802,0.1818,0.182,0.1827,0.1824,0.1829,0.1829,0.182,0.1825,0.1819,0.1817,0.1832,0.1816,0.1817,0.1819,0.1854,0.1859,0.1863,0,0,0,0,0,0,0.1767,0.1784,0.1788,0.1792,0.1807,0.182,0.1825,0.1828,0.1831,0.183,0.1825,0.1824,0.1835,0.1825,0.1818,0.1838,0.182,0.1821,0.1848,0.1852,0.1856,0.1863,0.1809,0,0,0,0,0,0.1765,0.1771,0.1789,0.1793,0.1801,0.1812,0.1818,0.1825,0.1831,0.1833,0.1833,0.1833,0.1838,0.1838,0.184,0.1844,0.1846,0.1853,0.1857,0.186,0.1865,0.1886,0.1893,0.1823,0.1823,0.1823,0,0,0.1759,0.177,0.1773,0.179,0.1801,0.1819,0.1815,0.1829,0.1845,0.183,0.1846,0.1846,0.1843,0.1856,0.1859,0.1849,0.1881,0.1862,0.1865,0.1867,0.1888,0.1895,0.1901,0.1824,0.1824,0.1824,0,0,0.176,0.1763,0.1774,0.1789,0.181,0.1821,0.1826,0.1844,0.1852,0.1863,0.1865,0.1874,0.1871,0.1884,0.1885,0.1908,0.1902,0.1906,0.1929,0.195,0.1956,0.1962,0.1973,0.1979,0.1906,0.1906,0.1906,0,0.1754,0.1769,0.1779,0.1798,0.1813,0.1824,0.1843,0.1856,0.1872,0.1883,0.1872,0.1893,0.1887,0.1916,0.1925,0.1918,0.1924,0.1912,0.1956,0.1961,0.1966,0.1976,0.1983,0.1908,0.1908,0.1908,0.1907,0,0.1769,0.1782,0.1791,0.182,0.1836,0.1853,0.1877,0.1891,0.1897,0.1911,0.1936,0.1936,0.195,0.1951,0.1941,0.1978,0.197,0.1961,0.1946,0.1976,0.1984,0.199,0.1911,0.191,0.191,0.1909,0,0,0.1753,0.1794,0.1796,0.1814,0.1849,0.1864,0.1893,0.1925,0.1947,0.196,0.1988,0.1999,0.2004,0.2006,0.2006,0.2019,0.2054,0.2003,0.2003,0.2017,0.2098,0.2104,0.211,0.2055,0.2056,0.2057,0.209,0,0.1762,0.1797,0.1817,0.1851,0.1872,0.1896,0.1923,0.1953,0.1973,0.2003,0.2015,0.2038,0.2026,0.2034,0.205,0.2055,0.2071,0.2045,0.2064,0.2065,0.2069,0.2118,0.2094,0.2122,0.2096,0.2097,0.2097,0,0.1769,0.1794,0.1829,0.1871,0.1882,0.1905,0.1951,0.198,0.2025,0.2043,0.2075,0.2083,0.2115,0.2091,0.2128,0.2113,0.211,0.2108,0.2109,0.2106,0.2082,0.2088,0.2134,0.2113,0.2106,0.2105,0.2105,0,0.1751,0.1798,0.1826,0.1842,0.1894,0.1913,0.1941,0.1989,0.2017,0.2074,0.2091,0.2137,0.2155,0.2168,0.2169,0.215,0.2202,0.2174,0.2179,0.2178,0.2157,0.2153,0.2187,0.2201,0.22,0.22,0.22,0,0.175,0.1769,0.182,0.1834,0.1864,0.1908,0.1946,0.1982,0.2038,0.2074,0.2112,0.215,0.2174,0.2202,0.2195,0.2218,0.2229,0.2198,0.2197,0.2169,0.2166,0.2145,0.2134,0.2202,0.2201,0.2201,0.2201,0,0.1721,0.1756,0.1787,0.1841,0.1855,0.1877,0.1935,0.1965,0.2025,0.2072,0.2089,0.2167,0.2218,0.2235,0.2265,0.2254,0.2225,0.2268,0.2232,0.2227,0.2202,0.2194,0.2131,0.2051,0.2277,0.2278,0.2278,0,0.1707,0.1724,0.1775,0.179,0.1812,0.1852,0.1876,0.1945,0.1977,0.2082,0.2098,0.2177,0.2228,0.2291,0.231,0.2323,0.2244,0.2286,0.2246,0.2216,0.2206,0.2104,0.2032,0.2228,0.2228,0.2228,0.2228,0,0.1678,0.1699,0.1722,0.1752,0.1776,0.1805,0.1846,0.187,0.1957,0.2006,0.2088,0.2145,0.2247,0.2282,0.2321,0.232,0.2212,0.2285,0.2267,0.2191,0.2069,0.1987,0.2182,0.2228,0.2228,0.2228,0.2228,0.2228,0.1645,0.1649,0.168,0.1701,0.1727,0.1746,0.1747,0.1805,0.1853,0.1918,0.2031,0.2108,0.2234,0.2308,0.2287,0.2283,0.2218,0.2232,0.223,0.2132,0.2041,0.2238,0.2275,0.2275,0.2275,0.2276,0.2276,0,0.1588,0.1602,0.1626,0.1638,0.1637,0.1676,0.171,0.1711,0.1738,0.1856,0.1926,0.209,0.2169,0.2242,0.2318,0.2253,0.2112,0.2194,0.2053,0.1985,0.219,0.2176,0.2179,0.2179,0.2179,0.2179,0.2179,0.2179,0.1556,0.1549,0.1561,0.1538,0.1549,0.153,0.1534,0.1562,0.1631,0.1738,0.1837,0.1951,0.2176,0.2368,0.2365,0.2291,0.2077,0.2016,0.1948,0.2137,0.214,0.2142,0.2126,0.2118,0.2118,0.1661,0.1658,0.1656]},{"header":{"parameterUnit":"m.s-1","parameterCategory":2,"la1":30.2991,"la2":30.254,"lo1":-89.0895,"lo2":-89.0444,"dx":0.0017,"dy":0.0017,"nx":28,"ny":28,"refTime":"2022-11-16T03:00:00:Z","depth":"0","parameterNumber":3,"parameterNumberName":"V-component_of_CURRENTS"},"data":[0,0,0,0,0,0,0,0,0,0,0,0,0,0,0,0,0,0,0,0,0,0,0,0,0,0,0,0,0,0,0,0,0,0,0,0,0,0,0,0,0,0,0,0,0,0,0,0,0,0,0,0,0,0,0,0,0,0,-0.0448,-0.0448,0,-0.0473,-0.0474,-0.0474,-0.0499,-0.0499,-0.0499,-0.0499,-0.0513,-0.0513,-0.0513,0,0,0,0,0,0,0,0,0,0,0,0,0,-0.0449,-0.0449,-0.0448,-0.0448,-0.0448,-0.0473,-0.0474,-0.0474,-0.0498,-0.0499,-0.0499,-0.0499,-0.0513,-0.0513,-0.0513,0,0,0,0,0,0,0,0,0,0,0,0,0,-0.0459,-0.0449,-0.0447,-0.0463,-0.0465,-0.0473,-0.0474,-0.0474,-0.0498,-0.0499,-0.0499,-0.05,-0.0513,-0.0513,-0.0513,-0.0505,0,0,-0.0513,-0.0513,0,0,0,0,0,0,0,0,-0.0459,-0.0459,-0.046,-0.0462,-0.0464,-0.0483,-0.0479,-0.0484,-0.0498,-0.0486,-0.0499,-0.05,-0.0501,-0.0502,-0.0507,-0.0506,-0.0507,-0.0513,-0.0513,-0.0513,-0.0513,0,0,0,0,0,0,0,-0.0458,-0.0459,-0.0458,-0.0461,-0.0463,-0.0479,-0.0481,-0.048,-0.0491,-0.0487,-0.0489,-0.0491,-0.0502,-0.0506,-0.0507,-0.0507,-0.0513,-0.0513,-0.0513,-0.0514,-0.0509,-0.0508,0,0,0,0,0,0,-0.0452,-0.0458,-0.0457,-0.0459,-0.0462,-0.0478,-0.048,-0.0477,-0.0491,-0.0494,-0.0491,-0.0492,-0.0506,-0.0507,-0.0508,-0.0498,-0.0513,-0.0514,-0.0514,-0.0509,-0.0509,-0.0508,0,0,0,0,0,0,-0.0452,-0.0451,-0.0456,-0.0459,-0.0461,-0.0478,-0.0474,-0.0477,-0.0481,-0.0494,-0.0496,-0.0491,-0.0506,-0.0507,-0.0507,-0.0499,-0.0514,-0.0514,-0.0509,-0.0509,-0.0508,-0.048,0,0,0,0,0,0,-0.0452,-0.0451,-0.0443,-0.0458,-0.046,-0.0455,-0.0473,-0.0477,-0.0482,-0.0484,-0.0495,-0.0497,-0.0507,-0.0507,-0.0507,-0.0499,-0.0514,-0.0509,-0.0509,-0.0509,-0.0481,-0.0479,-0.0476,0,0,0,0,0,-0.0451,-0.0436,-0.0442,-0.0442,-0.0449,-0.0455,-0.0457,-0.0471,-0.0481,-0.0478,-0.0489,-0.0497,-0.0505,-0.0507,-0.0507,-0.0499,-0.051,-0.0509,-0.0509,-0.0482,-0.0479,-0.0476,0,0,0,0,0,0,-0.0426,-0.0438,-0.0445,-0.0432,-0.0441,-0.0458,-0.0454,-0.0467,-0.0474,-0.0476,-0.0492,-0.0494,-0.0493,-0.0499,-0.0501,-0.0497,-0.0509,-0.0509,-0.0489,-0.0486,-0.0484,-0.0469,-0.0514,0,0,0,0,0,-0.0418,-0.0416,-0.0427,-0.0418,-0.0418,-0.0436,-0.0439,-0.0451,-0.0461,-0.0466,-0.0474,-0.0484,-0.0491,-0.0491,-0.0497,-0.049,-0.0497,-0.0487,-0.0485,-0.0482,-0.0471,-0.048,-0.0478,-0.0507,-0.0507,-0.0507,0,0,-0.0407,-0.0412,-0.0411,-0.0414,-0.042,-0.0413,-0.0439,-0.0441,-0.0437,-0.0464,-0.0458,-0.0475,-0.0488,-0.0486,-0.0485,-0.0489,-0.0479,-0.0482,-0.048,-0.047,-0.048,-0.0477,-0.0474,-0.0506,-0.0506,-0.0507,0,0,-0.0381,-0.0385,-0.0373,-0.0377,-0.0385,-0.0396,-0.0394,-0.0409,-0.0416,-0.0416,-0.0438,-0.0449,-0.0453,-0.0464,-0.047,-0.0457,-0.0468,-0.046,-0.0432,-0.0441,-0.0439,-0.0436,-0.0444,-0.0442,-0.0456,-0.0456,-0.0456,0,-0.0362,-0.035,-0.037,-0.0357,-0.0354,-0.0384,-0.0366,-0.0377,-0.0392,-0.0393,-0.0409,-0.0426,-0.0443,-0.0441,-0.0441,-0.0451,-0.0456,-0.0441,-0.0437,-0.0436,-0.0434,-0.0442,-0.0441,-0.0454,-0.0455,-0.0455,-0.0455,0,-0.0329,-0.0318,-0.031,-0.0305,-0.0304,-0.0296,-0.0312,-0.0316,-0.0332,-0.0345,-0.0351,-0.038,-0.0387,-0.0401,-0.0417,-0.0413,-0.0421,-0.0436,-0.0443,-0.0429,-0.0438,-0.0438,-0.0452,-0.0453,-0.0453,-0.0454,0,0,-0.0279,-0.0284,-0.0278,-0.0269,-0.0276,-0.027,-0.0265,-0.0266,-0.0256,-0.0285,-0.0273,-0.0307,-0.0327,-0.0335,-0.0362,-0.0375,-0.0379,-0.0396,-0.0397,-0.04,-0.0394,-0.0407,-0.0407,-0.0392,-0.0392,-0.0392,-0.0406,0,-0.0241,-0.021,-0.0223,-0.0192,-0.0175,-0.0201,-0.019,-0.0199,-0.0212,-0.0209,-0.0252,-0.0254,-0.03,-0.0303,-0.0324,-0.0363,-0.0375,-0.0373,-0.0409,-0.041,-0.0421,-0.0406,-0.041,-0.0424,-0.0405,-0.0405,-0.0405,0,-0.0191,-0.0181,-0.0144,-0.0135,-0.0127,-0.0113,-0.01,-0.0097,-0.0111,-0.0122,-0.0141,-0.0173,-0.0201,-0.0242,-0.0297,-0.0292,-0.0335,-0.0371,-0.0373,-0.0391,-0.0421,-0.0435,-0.0424,-0.0555,-0.0405,-0.0405,-0.0405,0,-0.0138,-0.012,-0.009,-0.0086,-0.0081,-0.0066,-0.0061,-0.0065,-0.005,-0.0064,-0.0056,-0.01,-0.0113,-0.0176,-0.0261,-0.0274,-0.0321,-0.0349,-0.04,-0.0402,-0.0414,-0.0418,-0.053,-0.038,-0.038,-0.038,-0.038,0,-0.0086,-0.0059,-0.0062,-0.0043,-0.0003,-0.0016,0.0031,0.0022,0.0031,0.0065,-0.0003,0.0013,-0.0096,-0.0143,-0.0228,-0.0308,-0.0296,-0.0386,-0.0403,-0.0405,-0.0407,-0.053,-0.0607,-0.0381,-0.0381,-0.038,-0.038,0,-0.0027,-0.0032,0.0004,0.0017,0.0024,0.0056,0.0091,0.0125,0.0116,0.0159,0.0157,0.0105,0.0043,-0.0071,-0.0169,-0.0255,-0.0417,-0.0372,-0.0368,-0.0384,-0.0557,-0.0631,-0.0758,-0.0815,-0.0426,-0.0427,-0.0427,0,0.0006,0.0029,0.0055,0.0082,0.0093,0.0134,0.0169,0.017,0.0212,0.0225,0.0254,0.02,0.0181,0.0018,-0.0151,-0.0299,-0.0424,-0.0401,-0.0431,-0.0562,-0.0657,-0.0721,-0.0764,-0.0439,-0.044,-0.044,-0.044,0,0.0069,0.0077,0.0105,0.0161,0.0202,0.0245,0.0295,0.0337,0.0352,0.0382,0.0418,0.0402,0.0239,0.0083,-0.0139,-0.0253,-0.0508,-0.0411,-0.0548,-0.0674,-0.0749,-0.0813,-0.0439,-0.0443,-0.0443,-0.0442,-0.0442,-0.0442,0.012,0.0153,0.0192,0.0246,0.0292,0.0355,0.0403,0.0458,0.0521,0.057,0.0551,0.0542,0.0292,-0.0014,-0.019,-0.0531,-0.0535,-0.0629,-0.0706,-0.0757,-0.0824,-0.0454,-0.0478,-0.0478,-0.0478,-0.0478,-0.0478,0,0.0188,0.022,0.0276,0.0338,0.04,0.0405,0.0486,0.0528,0.0609,0.0657,0.0683,0.0544,0.0241,-0.008,-0.0532,-0.0776,-0.0877,-0.092,-0.1022,-0.1049,-0.0717,-0.073,-0.0808,-0.0808,-0.0808,-0.0807,-0.0807,-0.0807,0.0226,0.0294,0.0317,0.0421,0.0463,0.0533,0.0577,0.0628,0.0671,0.0706,0.0692,0.0652,0.0372,-0.0387,-0.0972,-0.1103,-0.1289,-0.1329,-0.142,-0.121,-0.1189,-0.1169,-0.12,-0.1375,-0.1376,-0.1718,-0.1722,-0.1725]}],[{"header":{"parameterUnit":"m.s-1","parameterCategory":2,"la1":30.2991,"la2":30.254,"lo1":-89.0895,"lo2":-89.0444,"dx":0.0017,"dy":0.0017,"nx":28,"ny":28,"refTime":"2022-11-16T03:00:00:Z","depth":"2","parameterNumber":2,"parameterNumberName":"U-component_of_CURRENTS"},"data":[0,0,0,0,0,0,0,0,0,0,0,0,0,0,0,0,0,0,0,0,0,0,0,0,0,0,0,0,0,0,0,0,0,0,0,0,0,0,0,0,0,0,0,0,0,0,0,0,0,0,0,0,0,0,0,0,0,0,0.1755,0.1755,0,0.1776,0.1776,0.1776,0.1786,0.1787,0.1787,0.1787,0.1779,0.1778,0.1778,0,0,0,0,0,0,0,0,0,0,0,0,0,0.1732,0.1732,0.1755,0.1755,0.1756,0.1776,0.1776,0.1776,0.1786,0.1787,0.1787,0.1787,0.1779,0.1779,0.1778,0,0,0,0,0,0,0,0,0,0,0,0,0,0.1744,0.1732,0.1755,0.1765,0.1766,0.1776,0.1776,0.1776,0.1786,0.1787,0.1787,0.1787,0.1779,0.1779,0.1778,0.177,0,0,0.1776,0.1776,0,0,0,0,0,0,0,0,0.1744,0.1745,0.1763,0.1764,0.1765,0.178,0.1765,0.1773,0.1786,0.1777,0.1787,0.1787,0.1778,0.1777,0.1778,0.1769,0.1769,0.1776,0.1776,0.1776,0.1776,0,0,0,0,0,0,0,0.1743,0.1744,0.1761,0.1763,0.1765,0.1771,0.1772,0.1766,0.1774,0.1778,0.1779,0.1784,0.1778,0.1779,0.1778,0.1769,0.1776,0.1776,0.1775,0.1775,0.1787,0.1788,0,0,0,0,0,0,0.1743,0.1743,0.1761,0.1762,0.1757,0.1771,0.1773,0.1774,0.1774,0.1775,0.1784,0.1784,0.178,0.1779,0.1778,0.1802,0.1776,0.1775,0.1775,0.1786,0.1787,0.1788,0,0,0,0,0,0,0.1742,0.1744,0.176,0.1755,0.1758,0.1771,0.1772,0.1774,0.178,0.178,0.178,0.1788,0.178,0.1779,0.1783,0.18,0.1775,0.1774,0.1786,0.1787,0.1788,0.1827,0,0,0,0,0,0,0.1741,0.1744,0.1743,0.1755,0.1758,0.1773,0.1772,0.1774,0.1783,0.1785,0.1784,0.1783,0.178,0.1784,0.1783,0.1799,0.1774,0.1785,0.1786,0.1787,0.1825,0.1829,0.1833,0,0,0,0,0,0.174,0.174,0.1743,0.1745,0.1757,0.1774,0.1776,0.1785,0.1784,0.179,0.1791,0.1783,0.1791,0.1784,0.1782,0.1799,0.1784,0.1786,0.1787,0.1823,0.1828,0.1833,0,0,0,0,0,0,0.1726,0.1742,0.1745,0.1748,0.1763,0.1776,0.1783,0.1787,0.1792,0.1793,0.1788,0.1788,0.1801,0.1791,0.1784,0.1806,0.1788,0.1789,0.1816,0.182,0.1824,0.183,0.1774,0,0,0,0,0,0.1724,0.173,0.1746,0.1749,0.1758,0.177,0.1776,0.1785,0.1792,0.1795,0.1797,0.1798,0.1804,0.1805,0.1808,0.1813,0.1814,0.1824,0.1828,0.1831,0.1835,0.1855,0.1861,0.1793,0.1793,0.1793,0,0,0.1719,0.1728,0.1732,0.1747,0.1759,0.1777,0.1774,0.179,0.1805,0.1792,0.1811,0.1812,0.1809,0.1824,0.1829,0.1818,0.1851,0.1833,0.1836,0.1838,0.1857,0.1864,0.187,0.1794,0.1793,0.1793,0,0,0.1721,0.1724,0.1734,0.1749,0.1771,0.1782,0.1788,0.1806,0.1815,0.1828,0.183,0.1842,0.1841,0.1853,0.1855,0.188,0.1873,0.188,0.1903,0.1923,0.1929,0.1934,0.1943,0.1949,0.188,0.188,0.188,0,0.1717,0.1731,0.174,0.1758,0.1773,0.1786,0.1805,0.1818,0.1836,0.1847,0.1838,0.1862,0.1857,0.1887,0.1897,0.189,0.1896,0.1885,0.1929,0.1934,0.1938,0.1947,0.1952,0.1882,0.1882,0.1882,0.1881,0,0.1732,0.1745,0.1754,0.1782,0.1798,0.1816,0.1839,0.1855,0.1862,0.1877,0.1904,0.1905,0.1922,0.1923,0.1914,0.1951,0.1942,0.1933,0.1917,0.1948,0.1954,0.196,0.1885,0.1884,0.1884,0.1883,0,0,0.1717,0.1757,0.1759,0.1778,0.1812,0.1827,0.1856,0.1888,0.1911,0.1926,0.1955,0.1969,0.1976,0.1979,0.1979,0.1991,0.2025,0.1976,0.1976,0.1988,0.2065,0.2065,0.2071,0.2026,0.2027,0.2028,0.2056,0,0.1727,0.1761,0.178,0.1814,0.1835,0.1859,0.1886,0.1916,0.1938,0.1968,0.1982,0.2007,0.1997,0.2007,0.2022,0.2026,0.2041,0.2018,0.2032,0.2032,0.2031,0.2078,0.1913,0.1925,0.2062,0.2062,0.2063,0,0.1734,0.1757,0.1791,0.1834,0.1845,0.1869,0.1915,0.1944,0.199,0.2009,0.2043,0.2052,0.2084,0.2062,0.2096,0.2083,0.2079,0.2076,0.2077,0.2068,0.2043,0.1916,0.1929,0.2072,0.2071,0.207,0.207,0,0.1716,0.1762,0.1789,0.1805,0.1857,0.1877,0.1906,0.1955,0.1982,0.204,0.2059,0.2104,0.2123,0.2134,0.2135,0.2117,0.2164,0.2137,0.2136,0.2135,0.1992,0.1977,0.2161,0.2161,0.2161,0.2161,0.2161,0,0.1714,0.1734,0.1785,0.1799,0.183,0.1873,0.1913,0.195,0.2006,0.204,0.208,0.2116,0.2141,0.2166,0.2159,0.2176,0.2189,0.2154,0.2151,0.2002,0.1988,0.211,0.2103,0.2162,0.2162,0.2162,0.2162,0,0.1686,0.1721,0.1751,0.1806,0.1821,0.1845,0.1903,0.1933,0.1994,0.204,0.2057,0.2132,0.2178,0.2196,0.2222,0.2209,0.2218,0.2216,0.2041,0.2019,0.2165,0.216,0.2216,0.2217,0.2217,0.2218,0.2218,0,0.1672,0.1689,0.1741,0.1755,0.1779,0.182,0.1845,0.1916,0.1946,0.2047,0.2061,0.2137,0.2179,0.2234,0.2229,0.2232,0.2245,0.2076,0.2018,0.2184,0.2175,0.217,0.2165,0.1834,0.1831,0.1829,0.1827,0,0.1643,0.1665,0.1688,0.1718,0.1745,0.1773,0.1816,0.1838,0.1923,0.1969,0.2044,0.2093,0.2165,0.2115,0.2139,0.2115,0.2065,0.2031,0.2245,0.1863,0.183,0.182,0.1826,0.1806,0.1808,0.1809,0.181,0.1811,0.1612,0.1617,0.1648,0.1669,0.1696,0.1713,0.1716,0.1764,0.1806,0.1842,0.1959,0.1965,0.1996,0.196,0.1913,0.1873,0.2011,0.1899,0.1902,0.1909,0.1877,0.1849,0.1821,0.1823,0.1825,0.1826,0.1828,0,0.1555,0.1572,0.1595,0.1608,0.1603,0.1647,0.1678,0.1657,0.1669,0.1724,0.1768,0.1651,0.1648,0.1664,0.1585,0.161,0.1556,0.1532,0.1429,0.1454,0.1475,0.1416,0.1239,0.1237,0.1235,0.1233,0,0,0.1524,0.1515,0.1527,0.15,0.1515,0.1488,0.1491,0.1475,0.1486,0.1441,0.1424,0.1555,0.1624,0.1397,0.1389,0.1293,0.1352,0.1247,0.1726,0.1629,0.1647,0.1706,0.1648,0,0,0,0,0]},{"header":{"parameterUnit":"m.s-1","parameterCategory":2,"la1":30.2991,"la2":30.254,"lo1":-89.0895,"lo2":-89.0444,"dx":0.0017,"dy":0.0017,"nx":28,"ny":28,"refTime":"2022-11-16T03:00:00:Z","depth":"2","parameterNumber":3,"parameterNumberName":"V-component_of_CURRENTS"},"data":[0,0,0,0,0,0,0,0,0,0,0,0,0,0,0,0,0,0,0,0,0,0,0,0,0,0,0,0,0,0,0,0,0,0,0,0,0,0,0,0,0,0,0,0,0,0,0,0,0,0,0,0,0,0,0,0,0,0,-0.0264,-0.0264,0,-0.0298,-0.0298,-0.0299,-0.0334,-0.0334,-0.0335,-0.0335,-0.0357,-0.0357,-0.0357,0,0,0,0,0,0,0,0,0,0,0,0,0,-0.0264,-0.0263,-0.0264,-0.0264,-0.0264,-0.0298,-0.0298,-0.0299,-0.0334,-0.0334,-0.0335,-0.0335,-0.0357,-0.0357,-0.0357,0,0,0,0,0,0,0,0,0,0,0,0,0,-0.0278,-0.0263,-0.0263,-0.0286,-0.0288,-0.0298,-0.0298,-0.0299,-0.0334,-0.0334,-0.0335,-0.0336,-0.0357,-0.0357,-0.0357,-0.0345,0,0,-0.0358,-0.0358,0,0,0,0,0,0,0,0,-0.0277,-0.0277,-0.0282,-0.0284,-0.0287,-0.0312,-0.0306,-0.0314,-0.0333,-0.0316,-0.0335,-0.0336,-0.034,-0.0342,-0.0347,-0.0346,-0.0347,-0.0358,-0.0358,-0.0358,-0.0358,0,0,0,0,0,0,0,-0.0276,-0.0276,-0.0277,-0.0282,-0.0285,-0.0306,-0.0308,-0.0308,-0.0324,-0.0318,-0.0321,-0.0324,-0.0341,-0.0347,-0.0348,-0.0347,-0.0358,-0.0358,-0.0358,-0.0359,-0.0358,-0.0358,0,0,0,0,0,0,-0.0268,-0.0275,-0.0276,-0.0278,-0.0283,-0.0305,-0.0308,-0.0303,-0.0324,-0.0328,-0.0323,-0.0325,-0.0346,-0.0348,-0.0349,-0.0345,-0.0358,-0.0359,-0.0359,-0.0359,-0.0358,-0.0358,0,0,0,0,0,0,-0.0268,-0.0267,-0.0275,-0.0278,-0.028,-0.0304,-0.0299,-0.0304,-0.0314,-0.0328,-0.0332,-0.033,-0.0347,-0.0349,-0.0352,-0.0346,-0.0359,-0.0359,-0.0359,-0.0358,-0.0358,-0.0331,0,0,0,0,0,0,-0.0267,-0.0267,-0.026,-0.0277,-0.028,-0.0278,-0.0298,-0.0304,-0.0315,-0.0318,-0.0335,-0.0338,-0.0347,-0.0352,-0.0352,-0.0346,-0.0359,-0.0359,-0.0359,-0.0358,-0.0332,-0.033,-0.0328,0,0,0,0,0,-0.0267,-0.0252,-0.0259,-0.026,-0.027,-0.0277,-0.028,-0.0301,-0.0314,-0.0314,-0.0329,-0.0337,-0.0351,-0.0351,-0.0352,-0.0346,-0.0359,-0.0359,-0.0358,-0.0333,-0.0331,-0.0328,0,0,0,0,0,0,-0.0244,-0.0255,-0.0263,-0.0251,-0.0263,-0.0283,-0.0283,-0.0299,-0.0311,-0.0316,-0.0333,-0.0336,-0.0338,-0.0345,-0.0346,-0.0347,-0.0357,-0.0357,-0.0338,-0.0335,-0.0333,-0.032,-0.0359,0,0,0,0,0,-0.0236,-0.0234,-0.0246,-0.0239,-0.0241,-0.0263,-0.0269,-0.0284,-0.0297,-0.0304,-0.0316,-0.0328,-0.0336,-0.0338,-0.0345,-0.0341,-0.0348,-0.0339,-0.0337,-0.0335,-0.0325,-0.0335,-0.0332,-0.0357,-0.0357,-0.0357,0,0,-0.0228,-0.0232,-0.0233,-0.0235,-0.0245,-0.024,-0.0268,-0.0276,-0.0274,-0.0303,-0.0302,-0.0321,-0.0334,-0.0334,-0.0335,-0.0339,-0.0333,-0.0335,-0.0333,-0.0324,-0.0334,-0.0332,-0.033,-0.0357,-0.0357,-0.0357,0,0,-0.0207,-0.0211,-0.0201,-0.0206,-0.0217,-0.0228,-0.0229,-0.0247,-0.0257,-0.0261,-0.0284,-0.0298,-0.0305,-0.0316,-0.0322,-0.0311,-0.0324,-0.0315,-0.029,-0.03,-0.0298,-0.0296,-0.0305,-0.0305,-0.0312,-0.0312,-0.0312,0,-0.0195,-0.0181,-0.0199,-0.0188,-0.0186,-0.0218,-0.0203,-0.0216,-0.0236,-0.0238,-0.0257,-0.0278,-0.0296,-0.0294,-0.0296,-0.0305,-0.0312,-0.0298,-0.0297,-0.0295,-0.0294,-0.0304,-0.0303,-0.0311,-0.0311,-0.0311,-0.0311,0,-0.0164,-0.0155,-0.0148,-0.0142,-0.0143,-0.0139,-0.0154,-0.0162,-0.0181,-0.0195,-0.0204,-0.0234,-0.0245,-0.0258,-0.0275,-0.0273,-0.0282,-0.0295,-0.0301,-0.0289,-0.0301,-0.0301,-0.0309,-0.0309,-0.031,-0.031,0,0,-0.0125,-0.0126,-0.0121,-0.0112,-0.0119,-0.0114,-0.0111,-0.0113,-0.0105,-0.0139,-0.013,-0.0164,-0.0188,-0.0196,-0.0223,-0.0237,-0.0245,-0.0259,-0.026,-0.0265,-0.0264,-0.0279,-0.028,-0.0257,-0.0257,-0.0257,-0.0277,0,-0.0092,-0.0061,-0.007,-0.0043,-0.0028,-0.0052,-0.0041,-0.0052,-0.0066,-0.0067,-0.011,-0.0115,-0.016,-0.0168,-0.0189,-0.0228,-0.0243,-0.0238,-0.0277,-0.0278,-0.029,-0.028,-0.0251,-0.0267,-0.0277,-0.0277,-0.0277,0,-0.0048,-0.0036,-0.0001,0.001,0.0016,0.0028,0.004,0.0043,0.0028,0.0015,-0.0007,-0.004,-0.007,-0.0111,-0.0168,-0.0162,-0.0207,-0.0243,-0.0245,-0.0265,-0.0293,-0.0281,-0.0267,-0.0277,-0.0277,-0.0277,-0.0277,0,-0.0002,0.0017,0.0046,0.005,0.0057,0.007,0.0075,0.0071,0.0085,0.0067,0.0073,0.0028,0.0011,-0.0052,-0.0138,-0.0149,-0.02,-0.0225,-0.0279,-0.0281,-0.0267,-0.0268,-0.0259,-0.0259,-0.0259,-0.0259,-0.0259,0,0.0046,0.007,0.0069,0.0088,0.0125,0.0114,0.0157,0.0148,0.0156,0.0187,0.012,0.0134,0.0026,-0.0023,-0.0107,-0.019,-0.0177,-0.0268,-0.0284,-0.0258,-0.0257,-0.0274,-0.0275,-0.0259,-0.0259,-0.0259,-0.0259,0,0.0097,0.0095,0.0129,0.0142,0.0149,0.0177,0.0211,0.0243,0.0234,0.0273,0.0269,0.0219,0.0153,0.0041,-0.0059,-0.0142,-0.0227,-0.0261,-0.0224,-0.0237,-0.031,-0.031,-0.0319,-0.032,-0.032,-0.0321,-0.0321,0,0.0126,0.0147,0.0173,0.0199,0.0209,0.0247,0.028,0.0283,0.0323,0.0334,0.0361,0.0303,0.028,0.0116,-0.0042,-0.0189,-0.0219,-0.0264,-0.0286,-0.03,-0.0315,-0.0314,-0.0313,-0.0257,-0.0257,-0.0257,-0.0257,0,0.0182,0.0189,0.0217,0.0269,0.0307,0.035,0.0397,0.0438,0.0453,0.048,0.0511,0.0491,0.0334,0.019,-0.0027,-0.0128,-0.0243,-0.0266,-0.0279,-0.025,-0.0244,-0.0258,-0.0259,-0.0256,-0.0256,-0.0256,-0.0256,-0.0256,0.0226,0.0257,0.0295,0.0345,0.0389,0.045,0.0496,0.055,0.0609,0.0653,0.063,0.0605,0.0432,0.0163,-0.0025,-0.0229,-0.0227,-0.0294,-0.0293,-0.0293,-0.0286,-0.0281,-0.0298,-0.0298,-0.0299,-0.0299,-0.0299,0,0.0288,0.0316,0.0369,0.0427,0.0487,0.0492,0.0572,0.0622,0.0699,0.0731,0.0749,0.0614,0.0429,0.0219,-0.0076,-0.0254,-0.0266,-0.0311,-0.0283,-0.0283,-0.0283,-0.0275,-0.0285,-0.0286,-0.0286,-0.0287,0,0,0.0321,0.0385,0.0408,0.0504,0.0542,0.0618,0.0662,0.0739,0.078,0.0826,0.0812,0.0749,0.0498,0.0292,0.0049,-0.0121,-0.0164,-0.0155,-0.0145,-0.0084,-0.0082,-0.025,-0.0234,0,0,0,0,0]}],[{"header":{"parameterUnit":"m.s-1","parameterCategory":2,"la1":30.2991,"la2":30.254,"lo1":-89.0895,"lo2":-89.0444,"dx":0.0017,"dy":0.0017,"nx":28,"ny":28,"refTime":"2022-11-16T03:00:00:Z","depth":"4","parameterNumber":2,"parameterNumberName":"U-component_of_CURRENTS"},"data":[0,0,0,0,0,0,0,0,0,0,0,0,0,0,0,0,0,0,0,0,0,0,0,0,0,0,0,0,0,0,0,0,0,0,0,0,0,0,0,0,0,0,0,0,0,0,0,0,0,0,0,0,0,0,0,0,0,0,0.0885,0.0886,0,0.0937,0.0937,0.0937,0.0979,0.0979,0.098,0.0981,0.1064,0.1066,0.1067,0,0,0,0,0,0,0,0,0,0,0,0,0,0.0786,0.0787,0.0885,0.0886,0.0887,0.0937,0.0937,0.0938,0.0979,0.0979,0.098,0.0981,0.1064,0.1065,0.1067,0,0,0,0,0,0,0,0,0,0,0,0,0,0.0829,0.0788,0.0885,0.0916,0.0919,0.0937,0.0937,0.0938,0.0978,0.0979,0.0981,0.0982,0.1063,0.1065,0.1067,0.106,0,0,0.1075,0.1076,0,0,0,0,0,0,0,0,0.0827,0.0832,0.091,0.0914,0.0918,0.0955,0.0933,0.0981,0.0978,0.0952,0.0981,0.0982,0.1032,0.1037,0.1039,0.1064,0.1068,0.1075,0.1076,0.1077,0.1078,0,0,0,0,0,0,0,0.0824,0.083,0.0902,0.0911,0.0916,0.0915,0.0922,0.0942,0.0983,0.0955,0.0959,0.0969,0.1034,0.1037,0.1041,0.1069,0.1075,0.1077,0.1078,0.1079,0.1179,0.1181,0,0,0,0,0,0,0.0825,0.0828,0.0901,0.0904,0.0878,0.0916,0.0924,0.0939,0.0983,0.0991,0.0969,0.0971,0.1032,0.1039,0.1045,0.1123,0.1077,0.1079,0.1081,0.1178,0.118,0.1181,0,0,0,0,0,0,0.0823,0.0831,0.0898,0.0869,0.0878,0.0918,0.0934,0.094,0.0969,0.0993,0.1002,0.0994,0.1033,0.1041,0.1091,0.1123,0.108,0.1082,0.1177,0.1179,0.118,0.1226,0,0,0,0,0,0,0.082,0.083,0.0856,0.087,0.088,0.0925,0.0933,0.094,0.0974,0.0978,0.1018,0.1025,0.1035,0.1088,0.1093,0.1126,0.1084,0.1175,0.1178,0.118,0.1222,0.1229,0.1234,0,0,0,0,0,0.0816,0.084,0.0857,0.0867,0.091,0.0926,0.0931,0.0959,0.0974,0.0988,0.1023,0.1025,0.1107,0.1091,0.1097,0.1131,0.1174,0.1177,0.118,0.122,0.1228,0.1234,0,0,0,0,0,0,0.0814,0.0848,0.0866,0.0902,0.0922,0.0934,0.0959,0.0971,0.1007,0.1028,0.1041,0.1051,0.1108,0.111,0.1092,0.1166,0.1141,0.1145,0.1169,0.1176,0.1182,0.1184,0.1086,0,0,0,0,0,0.0825,0.0856,0.0878,0.0911,0.0923,0.0944,0.0961,0.0982,0.1009,0.1026,0.1054,0.1088,0.1118,0.1141,0.1168,0.1206,0.1209,0.1232,0.1238,0.1243,0.1249,0.1277,0.1286,0.119,0.119,0.119,0,0,0.0829,0.0859,0.0874,0.0914,0.0934,0.0953,0.0957,0.0995,0.1024,0.103,0.109,0.1113,0.1133,0.1182,0.1207,0.1193,0.1273,0.1246,0.1251,0.1254,0.1281,0.1291,0.1299,0.1192,0.1192,0.1192,0,0,0.0848,0.0884,0.0911,0.093,0.0975,0.0985,0.0999,0.103,0.1062,0.1113,0.1129,0.1172,0.1217,0.1238,0.1252,0.1304,0.1304,0.1316,0.1349,0.1377,0.1385,0.1392,0.1412,0.142,0.1318,0.1318,0.1318,0,0.0862,0.0897,0.092,0.095,0.0972,0.0999,0.1024,0.1053,0.1102,0.1133,0.1145,0.122,0.1243,0.1289,0.1315,0.1319,0.1331,0.132,0.1384,0.1391,0.1398,0.1416,0.1425,0.132,0.132,0.132,0.132,0,0.0885,0.0924,0.0941,0.0987,0.1011,0.1041,0.1076,0.1115,0.1157,0.1189,0.1261,0.1289,0.1332,0.1347,0.1353,0.1409,0.1403,0.1388,0.1365,0.141,0.1427,0.1435,0.1324,0.1323,0.1322,0.1322,0,0,0.0889,0.0947,0.0956,0.0984,0.1038,0.1055,0.111,0.116,0.1206,0.1262,0.1316,0.1374,0.1398,0.1414,0.1424,0.1451,0.1514,0.1448,0.1448,0.1465,0.1578,0.1479,0.1478,0.1513,0.1515,0.1516,0.1572,0,0.0906,0.0958,0.0985,0.1034,0.106,0.11,0.1144,0.1201,0.1257,0.1317,0.1361,0.1421,0.142,0.1453,0.148,0.151,0.1538,0.15,0.1533,0.1534,0.1438,0.1485,0.1522,0.1578,0.158,0.1581,0.1582,0,0.0915,0.0955,0.1005,0.1067,0.1082,0.1118,0.1194,0.1243,0.1327,0.1375,0.1434,0.1468,0.153,0.1516,0.1585,0.1564,0.1581,0.1592,0.1594,0.1491,0.145,0.1523,0.1597,0.1596,0.1595,0.1594,0.1593,0,0.0896,0.0964,0.1008,0.1028,0.1101,0.1141,0.1187,0.1271,0.1322,0.142,0.1466,0.1531,0.158,0.1609,0.1643,0.1627,0.1704,0.1678,0.16,0.1594,0.1645,0.1637,0.1723,0.1723,0.1722,0.1722,0.1722,0,0.0892,0.093,0.1008,0.103,0.1093,0.115,0.1227,0.1282,0.1368,0.1429,0.1502,0.1545,0.161,0.1655,0.1667,0.1661,0.1726,0.1616,0.1604,0.1663,0.1656,0.1651,0.1642,0.1724,0.1724,0.1723,0.1723,0,0.0861,0.0913,0.0969,0.1055,0.1086,0.1137,0.1236,0.1286,0.1379,0.1456,0.149,0.1582,0.164,0.1681,0.1736,0.1688,0.1693,0.1672,0.1744,0.1733,0.1558,0.1551,0.1588,0.1585,0.1582,0.158,0.1578,0,0.0846,0.0874,0.0973,0.1012,0.1058,0.1139,0.119,0.1285,0.1332,0.1461,0.1485,0.1579,0.1627,0.1622,0.1674,0.1682,0.166,0.165,0.1592,0.1561,0.1546,0.1543,0.1539,0.1574,0.1574,0.1573,0.1572,0,0.0816,0.0863,0.0908,0.0988,0.1052,0.1109,0.1186,0.1205,0.1315,0.1404,0.1444,0.1473,0.1534,0.1561,0.1582,0.1583,0.1648,0.1623,0.1628,0.1573,0.1545,0.1532,0.1531,0.1563,0.1565,0.1566,0.1566,0,0.0796,0.082,0.0888,0.0952,0.1026,0.1061,0.1105,0.1152,0.1204,0.1329,0.134,0.1437,0.1519,0.1512,0.1532,0.1525,0.1496,0.1438,0.1451,0.1462,0.1393,0.1337,0.129,0,0,0,0,0,0.0767,0.0791,0.0844,0.0908,0.0974,0.1015,0.1093,0.1136,0.1229,0.1223,0.1274,0.132,0.1351,0.1401,0.1368,0.148,0.1506,0.1436,0.1446,0.1515,0.1525,0.1455,0,0,0,0,0,0,0.0752,0.0799,0.0822,0.0856,0.0886,0.0947,0.0992,0.1053,0.1049,0.1146,0.1168,0.1241,0.1291,0.1356,0.1344,0.1358,0.1337,0.1493,0.1489,0.1509,0.1518,0.1527,0.1458,0,0,0,0,0]},{"header":{"parameterUnit":"m.s-1","parameterCategory":2,"la1":30.2991,"la2":30.254,"lo1":-89.0895,"lo2":-89.0444,"dx":0.0017,"dy":0.0017,"nx":28,"ny":28,"refTime":"2022-11-16T03:00:00:Z","depth":"4","parameterNumber":3,"parameterNumberName":"V-component_of_CURRENTS"},"data":[0,0,0,0,0,0,0,0,0,0,0,0,0,0,0,0,0,0,0,0,0,0,0,0,0,0,0,0,0,0,0,0,0,0,0,0,0,0,0,0,0,0,0,0,0,0,0,0,0,0,0,0,0,0,0,0,0,0,0.0321,0.0321,0,0.0284,0.0284,0.0284,0.0274,0.0274,0.0274,0.0274,0.0233,0.0232,0.0231,0,0,0,0,0,0,0,0,0,0,0,0,0,0.0369,0.0368,0.0321,0.0321,0.032,0.0284,0.0284,0.0284,0.0274,0.0274,0.0274,0.0274,0.0234,0.0232,0.0231,0,0,0,0,0,0,0,0,0,0,0,0,0,0.0342,0.0368,0.0321,0.031,0.0309,0.0285,0.0284,0.0283,0.0274,0.0274,0.0274,0.0274,0.0234,0.0233,0.0231,0.0216,0,0,0.0225,0.0224,0,0,0,0,0,0,0,0,0.0344,0.0341,0.0312,0.0311,0.0309,0.0283,0.0286,0.026,0.0273,0.0288,0.0274,0.0274,0.0249,0.0246,0.024,0.0214,0.0212,0.0225,0.0224,0.0223,0.0223,0,0,0,0,0,0,0,0.0346,0.0342,0.0308,0.0312,0.031,0.0302,0.0299,0.0281,0.0268,0.0287,0.0286,0.028,0.0248,0.0242,0.0239,0.0211,0.0225,0.0224,0.0222,0.0222,0.0184,0.0184,0,0,0,0,0,0,0.0349,0.0344,0.0309,0.0306,0.0326,0.0301,0.0297,0.0292,0.0269,0.0265,0.028,0.028,0.0245,0.0241,0.0237,0.0229,0.0223,0.0222,0.022,0.0183,0.0184,0.0184,0,0,0,0,0,0,0.035,0.0346,0.031,0.0324,0.0318,0.03,0.0294,0.0291,0.0288,0.0263,0.026,0.028,0.0245,0.024,0.0227,0.0227,0.0221,0.0219,0.0183,0.0184,0.0184,0.0206,0,0,0,0,0,0,0.0352,0.0347,0.0345,0.0324,0.0318,0.0304,0.0294,0.029,0.0284,0.0283,0.0262,0.0259,0.0244,0.023,0.0225,0.0225,0.0218,0.0183,0.0183,0.0184,0.0205,0.0207,0.0208,0,0,0,0,0,0.0353,0.035,0.0345,0.0341,0.0316,0.0304,0.03,0.0288,0.0284,0.0286,0.027,0.026,0.0227,0.0228,0.0223,0.0222,0.0183,0.0183,0.0184,0.0204,0.0206,0.0208,0,0,0,0,0,0,0.0367,0.0347,0.0342,0.0332,0.0323,0.0302,0.03,0.0291,0.028,0.0277,0.0258,0.0253,0.0241,0.0229,0.0231,0.0212,0.0204,0.0203,0.0222,0.0223,0.0225,0.0227,0.0216,0,0,0,0,0,0.0369,0.0361,0.0346,0.0337,0.0336,0.0319,0.0313,0.0303,0.0288,0.0284,0.0268,0.0251,0.0236,0.0229,0.0212,0.0202,0.018,0.0198,0.02,0.0201,0.02,0.0167,0.0165,0.0184,0.0184,0.0184,0,0,0.0373,0.0358,0.0356,0.034,0.0332,0.0331,0.0316,0.0306,0.0302,0.028,0.027,0.0253,0.0234,0.0221,0.0215,0.0214,0.0184,0.0202,0.0203,0.0201,0.0167,0.0165,0.0163,0.0184,0.0184,0.0184,0,0,0.0374,0.0366,0.0363,0.0358,0.0343,0.0336,0.0336,0.0318,0.031,0.0295,0.0279,0.0264,0.024,0.0228,0.0219,0.0219,0.0191,0.0215,0.0226,0.0194,0.0192,0.019,0.016,0.0155,0.0219,0.0219,0.0219,0,0.0377,0.0372,0.0361,0.0358,0.0357,0.0342,0.0346,0.0334,0.0312,0.0305,0.0295,0.0259,0.0242,0.0231,0.023,0.0222,0.0198,0.0221,0.0196,0.0193,0.0191,0.016,0.0154,0.022,0.022,0.0219,0.0219,0,0.0378,0.0378,0.0377,0.0372,0.0372,0.0369,0.0358,0.0351,0.0337,0.0323,0.0303,0.0276,0.0258,0.025,0.0238,0.0218,0.0205,0.0199,0.0191,0.019,0.0158,0.0152,0.0221,0.0221,0.0221,0.022,0,0,0.0374,0.0377,0.0378,0.0385,0.0378,0.038,0.0375,0.037,0.0368,0.0339,0.0329,0.03,0.0284,0.0272,0.0255,0.0228,0.0189,0.0208,0.0205,0.0178,0.0115,0.0113,0.0106,0.0176,0.0175,0.0174,0.01,0,0.0379,0.0386,0.0384,0.0399,0.0407,0.0399,0.0401,0.0391,0.0377,0.0363,0.033,0.0313,0.0294,0.0284,0.0253,0.0205,0.0173,0.021,0.012,0.0117,0.0115,0.0099,0.0171,0.0095,0.0093,0.0092,0.0091,0,0.0383,0.0386,0.0403,0.0418,0.0422,0.0431,0.0437,0.0433,0.0412,0.0396,0.0373,0.0345,0.0305,0.0285,0.02,0.0223,0.017,0.0129,0.0125,0.0111,0.0103,0.0095,0.0079,0.008,0.0081,0.0082,0.0083,0,0.0392,0.0404,0.042,0.0424,0.0435,0.0444,0.0452,0.0446,0.0446,0.0418,0.0409,0.036,0.0331,0.0259,0.018,0.0183,0.008,0.0075,0.0023,0.0022,0.0036,0.0039,0.0007,0.0007,0.0007,0.0007,0.0008,0,0.0396,0.041,0.0429,0.0437,0.0459,0.0463,0.0484,0.0478,0.0473,0.0474,0.043,0.0414,0.032,0.0255,0.0179,0.0083,0.0078,0.0017,-0.0,0.0048,0.0053,0.0032,0.0035,0.0005,0.0005,0.0006,0.0006,0,0.0403,0.0411,0.0433,0.0454,0.0464,0.0482,0.0511,0.0522,0.0513,0.051,0.05,0.0443,0.0356,0.0263,0.0143,0.0086,-0.0008,-0.0041,0.0017,0.0006,-0.0046,-0.004,-0.0112,-0.0113,-0.0114,-0.0114,-0.0115,0,0.0404,0.0416,0.045,0.0465,0.0477,0.0506,0.0525,0.0537,0.0549,0.053,0.0524,0.0449,0.0399,0.0232,0.0133,-0.0014,-0.0031,-0.0082,-0.0067,-0.005,-0.006,-0.0053,-0.0046,-0.0116,-0.0116,-0.0116,-0.0116,0,0.0405,0.0422,0.0441,0.0475,0.0502,0.0532,0.0562,0.0573,0.0579,0.0576,0.0537,0.0453,0.0355,0.0232,0.0117,0.0015,-0.005,-0.0089,-0.0088,-0.0075,-0.0055,-0.0062,-0.0055,-0.0118,-0.0118,-0.0118,-0.0118,0,0.0408,0.0423,0.0452,0.0479,0.0515,0.0542,0.0562,0.0573,0.0583,0.0566,0.0554,0.0454,0.04,0.0246,0.0143,0.0039,0.0012,-0.002,-0.0024,-0.0023,0.0029,0.0069,0.0023,0,0,0,0,0,0.0409,0.0424,0.0452,0.048,0.0518,0.054,0.0575,0.0591,0.0603,0.0579,0.0568,0.0478,0.0324,0.0261,0.0155,0.0123,-0.0011,-0.0005,-0.0051,-0.0131,-0.0128,-0.0083,0,0,0,0,0,0,0.0405,0.0434,0.0447,0.0476,0.0499,0.0539,0.0566,0.0576,0.0563,0.0562,0.0483,0.0451,0.0302,0.0384,0.0152,0.0122,0.0078,-0.0073,-0.0075,-0.0132,-0.013,-0.0128,-0.008,0,0,0,0,0]}]]